Time,TemperatureF,DewpointF,PressureIn,WindDirection,WindDirectionDegrees,WindSpeedMPH,WindSpeedGustMPH,Humidity,HourlyPrecipIn,Conditions,Clouds,dailyrainin,SoftwareType,DateUTC
2013-01-20 10:45:00,44.7,34.0,30.09,NNW,335,3.0,5.0,66,0.00,,,0.00,Weather View 32 v70,2013-01-20 15:45:00,
2013-01-20 10:50:00,44.8,33.7,30.09,NNE,13,5.0,11.0,65,0.00,,,0.00,Weather View 32 v70,2013-01-20 15:50:00,
2013-01-20 10:55:00,44.9,33.8,30.09,North,355,4.0,11.0,65,0.00,,,0.00,Weather View 32 v70,2013-01-20 15:55:00,
2013-01-20 11:01:00,45.0,33.9,30.09,NNE,31,4.0,11.0,65,0.00,,,0.00,Weather View 32 v70,2013-01-20 16:01:00,
2013-01-20 11:06:00,45.3,33.8,30.09,North,8,4.0,11.0,64,0.00,,,0.00,Weather View 32 v70,2013-01-20 16:06:00,
2013-01-20 11:11:00,45.5,34.0,30.09,North,350,3.0,11.0,64,0.00,,,0.00,Weather View 32 v70,2013-01-20 16:11:00,
2013-01-20 11:16:00,46.2,34.7,30.09,NNE,20,2.0,11.0,64,0.00,,,0.00,Weather View 32 v70,2013-01-20 16:16:00,
2013-01-20 11:21:00,46.8,34.4,30.08,East,87,2.0,11.0,62,0.00,,,0.00,Weather View 32 v70,2013-01-20 16:21:00,
2013-01-20 11:26:00,47.2,35.2,30.08,NNE,12,2.0,11.0,63,0.00,,,0.00,Weather View 32 v70,2013-01-20 16:26:00,
2013-01-20 11:31:00,47.6,34.8,30.08,NNE,24,4.0,11.0,61,0.00,,,0.00,Weather View 32 v70,2013-01-20 16:31:00,
2013-01-20 11:36:00,47.9,34.7,30.08,NW,313,2.0,11.0,60,0.00,,,0.00,Weather View 32 v70,2013-01-20 16:36:00,
2013-01-20 11:41:00,48.4,34.7,30.07,NW,304,5.0,11.0,59,0.00,,,0.00,Weather View 32 v70,2013-01-20 16:41:00,
2013-01-20 11:46:00,48.6,34.9,30.07,NNE,22,6.0,11.0,59,0.00,,,0.00,Weather View 32 v70,2013-01-20 16:46:00,
2013-01-20 11:51:00,48.9,35.2,30.07,NNE,17,4.0,10.0,59,0.00,,,0.00,Weather View 32 v70,2013-01-20 16:51:00,
2013-01-20 11:56:00,49.3,35.1,30.07,NW,311,1.0,10.0,58,0.00,,,0.00,Weather View 32 v70,2013-01-20 16:56:00,
2013-01-20 12:01:00,49.8,35.6,30.06,SE,141,1.0,9.0,58,0.00,,,0.00,Weather View 32 v70,2013-01-20 17:01:00,
2013-01-20 12:06:00,50.4,35.7,30.06,WNW,299,0.0,9.0,57,0.00,,,0.00,Weather View 32 v70,2013-01-20 17:06:00,
2013-01-20 12:11:00,50.5,35.4,30.06,South,171,0.0,9.0,56,0.00,,,0.00,Weather View 32 v70,2013-01-20 17:11:00,
2013-01-20 12:16:00,50.3,34.7,30.06,NNW,333,3.0,9.0,55,0.00,,,0.00,Weather View 32 v70,2013-01-20 17:16:00,
2013-01-20 12:21:00,50.6,35.5,30.06,NW,305,1.0,9.0,56,0.00,,,0.00,Weather View 32 v70,2013-01-20 17:21:00,
2013-01-20 12:26:00,50.2,35.1,30.05,North,355,3.0,9.0,56,0.00,,,0.00,Weather View 32 v70,2013-01-20 17:26:00,
2013-01-20 12:31:00,50.3,34.7,30.05,NE,38,3.0,9.0,55,0.00,,,0.00,Weather View 32 v70,2013-01-20 17:31:00,
2013-01-20 12:36:00,50.7,34.6,30.05,NNW,347,3.0,9.0,54,0.00,,,0.00,Weather View 32 v70,2013-01-20 17:36:00,
2013-01-20 12:41:00,51.2,35.1,30.04,NW,319,0.0,9.0,54,0.00,,,0.00,Weather View 32 v70,2013-01-20 17:41:00,
2013-01-20 12:46:00,51.2,34.1,30.04,NNE,14,4.0,11.0,52,0.00,,,0.00,Weather View 32 v70,2013-01-20 17:46:00,
2013-01-20 12:51:00,51.7,34.6,30.04,NNW,331,3.0,11.0,52,0.00,,,0.00,Weather View 32 v70,2013-01-20 17:51:00,
2013-01-20 12:56:00,52.1,35.5,30.04,North,5,4.0,11.0,53,0.00,,,0.00,Weather View 32 v70,2013-01-20 17:56:00,
2013-01-20 13:01:00,52.1,34.5,30.03,SE,140,2.0,12.0,51,0.00,,,0.00,Weather View 32 v70,2013-01-20 18:01:00,
2013-01-20 13:06:00,52.6,33.9,30.03,SW,231,3.0,12.0,49,0.00,,,0.00,Weather View 32 v70,2013-01-20 18:06:00,
2013-01-20 13:11:00,52.8,34.6,30.03,ENE,73,1.0,12.0,50,0.00,,,0.00,Weather View 32 v70,2013-01-20 18:11:00,
2013-01-20 13:16:00,53.2,34.5,30.03,North,351,2.0,12.0,49,0.00,,,0.00,Weather View 32 v70,2013-01-20 18:16:00,
2013-01-20 13:21:00,53.1,34.4,30.03,NE,43,3.0,12.0,49,0.00,,,0.00,Weather View 32 v70,2013-01-20 18:21:00,
2013-01-20 13:26:00,52.9,33.2,30.02,ENE,58,4.0,12.0,47,0.00,,,0.00,Weather View 32 v70,2013-01-20 18:26:00,
2013-01-20 13:31:00,53.5,33.7,30.02,SW,215,2.0,12.0,47,0.00,,,0.00,Weather View 32 v70,2013-01-20 18:31:00,
2013-01-20 13:36:00,53.8,34.0,30.02,NNE,32,5.0,12.0,47,0.00,,,0.00,Weather View 32 v70,2013-01-20 18:36:00,
2013-01-20 13:41:00,54.2,34.4,30.02,ESE,110,2.0,12.0,47,0.00,,,0.00,Weather View 32 v70,2013-01-20 18:41:00,
2013-01-20 13:46:00,54.2,33.3,30.02,SSW,213,2.0,12.0,45,0.00,,,0.00,Weather View 32 v70,2013-01-20 18:46:00,
2013-01-20 13:51:00,54.4,32.3,30.01,WSW,243,6.0,12.0,43,0.00,,,0.00,Weather View 32 v70,2013-01-20 18:51:00,
2013-01-20 13:56:00,54.8,33.8,30.02,SW,226,0.0,12.0,45,0.00,,,0.00,Weather View 32 v70,2013-01-20 18:56:00,
2013-01-20 14:01:00,55.2,33.0,30.01,WSW,253,0.0,12.0,43,0.00,,,0.00,Weather View 32 v70,2013-01-20 19:01:00,
2013-01-20 14:06:00,54.9,32.2,30.02,NW,318,3.0,14.0,42,0.00,,,0.00,Weather View 32 v70,2013-01-20 19:06:00,
2013-01-20 14:11:00,54.9,32.2,30.01,NNE,33,5.0,14.0,42,0.00,,,0.00,Weather View 32 v70,2013-01-20 19:11:00,
2013-01-20 14:16:00,55.0,32.9,30.01,North,351,0.0,14.0,43,0.00,,,0.00,Weather View 32 v70,2013-01-20 19:16:00,
2013-01-20 14:21:00,55.5,33.9,30.01,NE,36,0.0,14.0,44,0.00,,,0.00,Weather View 32 v70,2013-01-20 19:21:00,
2013-01-20 14:26:00,55.6,34.0,30.01,NE,46,6.0,14.0,44,0.00,,,0.00,Weather View 32 v70,2013-01-20 19:26:00,
2013-01-20 14:31:00,55.9,33.1,30.01,East,100,0.0,14.0,42,0.00,,,0.00,Weather View 32 v70,2013-01-20 19:31:00,
2013-01-20 14:36:00,56.3,33.5,30.00,NE,49,0.0,14.0,42,0.00,,,0.00,Weather View 32 v70,2013-01-20 19:36:00,
2013-01-20 14:41:00,55.9,32.5,30.00,NNE,24,2.0,14.0,41,0.00,,,0.00,Weather View 32 v70,2013-01-20 19:41:00,
2013-01-20 14:46:00,55.9,33.1,30.01,SW,218,3.0,14.0,42,0.00,,,0.00,Weather View 32 v70,2013-01-20 19:46:00,
2013-01-20 14:51:00,55.9,31.9,30.01,East,79,2.0,14.0,40,0.00,,,0.00,Weather View 32 v70,2013-01-20 19:51:00,
2013-01-20 14:56:00,56.0,32.0,30.01,SE,146,3.0,14.0,40,0.00,,,0.00,Weather View 32 v70,2013-01-20 19:56:00,
2013-01-20 15:01:00,55.5,32.1,30.00,NW,324,4.0,14.0,41,0.00,,,0.00,Weather View 32 v70,2013-01-20 20:01:00,
2013-01-20 15:06:00,55.6,32.2,30.00,WSW,255,0.0,11.0,41,0.00,,,0.00,Weather View 32 v70,2013-01-20 20:06:00,
2013-01-20 15:11:00,55.9,31.9,30.00,NNE,22,2.0,11.0,40,0.00,,,0.00,Weather View 32 v70,2013-01-20 20:11:00,
2013-01-20 15:16:00,55.8,31.8,30.00,West,268,4.0,11.0,40,0.00,,,0.00,Weather View 32 v70,2013-01-20 20:16:00,
2013-01-20 15:21:00,56.0,32.0,30.00,SW,214,1.0,11.0,40,0.00,,,0.00,Weather View 32 v70,2013-01-20 20:21:00,
2013-01-20 15:26:00,55.7,32.3,30.00,SE,143,0.0,11.0,41,0.00,,,0.00,Weather View 32 v70,2013-01-20 20:26:00,
2013-01-20 15:31:00,55.9,31.3,30.00,WSW,252,2.0,11.0,39,0.00,,,0.00,Weather View 32 v70,2013-01-20 20:31:00,
2013-01-20 15:36:00,55.6,31.0,30.00,SSE,160,0.0,11.0,39,0.00,,,0.00,Weather View 32 v70,2013-01-20 20:36:00,
2013-01-20 15:41:00,55.7,31.7,30.00,SSW,208,2.0,11.0,40,0.00,,,0.00,Weather View 32 v70,2013-01-20 20:41:00,
2013-01-20 15:46:00,56.0,32.0,30.00,NNE,29,3.0,11.0,40,0.00,,,0.00,Weather View 32 v70,2013-01-20 20:46:00,
2013-01-20 15:51:00,56.4,31.1,30.00,ENE,68,1.0,11.0,38,0.00,,,0.00,Weather View 32 v70,2013-01-20 20:51:00,
2013-01-20 15:56:00,56.0,30.0,30.00,SSW,198,3.0,11.0,37,0.00,,,0.00,Weather View 32 v70,2013-01-20 20:56:00,
2013-01-20 16:01:00,55.9,31.3,30.01,North,356,0.0,10.0,39,0.00,,,0.00,Weather View 32 v70,2013-01-20 21:01:00,
2013-01-20 16:07:00,55.5,29.6,30.01,North,354,2.0,10.0,37,0.00,,,0.00,Weather View 32 v70,2013-01-20 21:07:00,
2013-01-20 16:12:00,55.8,31.2,30.01,ESE,106,0.0,10.0,39,0.00,,,0.00,Weather View 32 v70,2013-01-20 21:12:00,
2013-01-20 16:17:00,56.2,30.9,30.01,NNE,23,2.0,10.0,38,0.00,,,0.00,Weather View 32 v70,2013-01-20 21:17:00,
2013-01-20 16:22:00,56.6,31.9,30.02,SE,135,0.0,10.0,39,0.00,,,0.00,Weather View 32 v70,2013-01-20 21:22:00,
2013-01-20 16:27:00,56.1,30.1,30.02,SW,226,4.0,9.0,37,0.00,,,0.00,Weather View 32 v70,2013-01-20 21:27:00,
2013-01-20 16:33:00,55.8,29.2,30.02,ENE,66,4.0,9.0,36,0.00,,,0.00,Weather View 32 v70,2013-01-20 21:33:00,
2013-01-20 16:38:00,55.5,28.9,30.02,North,6,0.0,9.0,36,0.00,,,0.00,Weather View 32 v70,2013-01-20 21:38:00,
2013-01-20 16:43:00,54.9,29.7,30.02,SW,214,0.0,9.0,38,0.00,,,0.00,Weather View 32 v70,2013-01-20 21:43:00,
2013-01-20 16:48:00,53.8,28.1,30.02,North,7,6.0,9.0,37,0.00,,,0.00,Weather View 32 v70,2013-01-20 21:48:00,
2013-01-20 16:53:00,53.4,29.0,30.02,SW,214,0.0,9.0,39,0.00,,,0.00,Weather View 32 v70,2013-01-20 21:53:00,
2013-01-20 16:58:00,53.5,29.1,30.02,East,81,0.0,9.0,39,0.00,,,0.00,Weather View 32 v70,2013-01-20 21:58:00,
2013-01-20 17:03:00,53.6,27.9,30.02,SSW,194,0.0,9.0,37,0.00,,,0.00,Weather View 32 v70,2013-01-20 22:03:00,
2013-01-20 17:08:00,53.4,27.7,30.03,SW,224,0.0,9.0,37,0.00,,,0.00,Weather View 32 v70,2013-01-20 22:08:00,
2013-01-20 17:13:00,53.1,27.5,30.03,East,85,0.0,9.0,37,0.00,,,0.00,Weather View 32 v70,2013-01-20 22:13:00,
2013-01-20 17:18:00,52.6,28.3,30.03,NNE,28,0.0,9.0,39,0.00,,,0.00,Weather View 32 v70,2013-01-20 22:18:00,
2013-01-20 17:23:00,52.0,27.1,30.03,NE,50,1.0,9.0,38,0.00,,,0.00,Weather View 32 v70,2013-01-20 22:23:00,
2013-01-20 17:28:00,51.5,27.3,30.03,WSW,244,0.0,9.0,39,0.00,,,0.00,Weather View 32 v70,2013-01-20 22:28:00,
2013-01-20 17:33:00,51.0,28.1,30.03,NW,319,0.0,9.0,41,0.00,,,0.00,Weather View 32 v70,2013-01-20 22:33:00,
2013-01-20 17:38:00,50.3,27.5,30.03,NNE,27,3.0,9.0,41,0.00,,,0.00,Weather View 32 v70,2013-01-20 22:38:00,
2013-01-20 17:43:00,49.9,26.5,30.03,South,173,2.0,9.0,40,0.00,,,0.00,Weather View 32 v70,2013-01-20 22:43:00,
2013-01-20 17:48:00,49.5,26.7,30.03,East,91,0.0,9.0,41,0.00,,,0.00,Weather View 32 v70,2013-01-20 22:48:00,
2013-01-20 17:53:00,49.1,26.4,30.04,SE,143,5.0,7.0,41,0.00,,,0.00,Weather View 32 v70,2013-01-20 22:53:00,
2013-01-20 17:58:00,48.9,27.3,30.04,North,354,0.0,8.0,43,0.00,,,0.00,Weather View 32 v70,2013-01-20 22:58:00,
2013-01-20 18:03:00,48.1,27.2,30.04,SSW,192,0.0,8.0,44,0.00,,,0.00,Weather View 32 v70,2013-01-20 23:03:00,
2013-01-20 18:08:00,47.5,29.3,30.04,North,354,0.0,8.0,49,0.00,,,0.00,Weather View 32 v70,2013-01-20 23:08:00,
2013-01-20 18:13:00,46.7,30.0,30.04,SW,226,0.0,8.0,52,0.00,,,0.00,Weather View 32 v70,2013-01-20 23:13:00,
2013-01-20 18:18:00,46.3,28.6,30.04,North,7,0.0,8.0,50,0.00,,,0.00,Weather View 32 v70,2013-01-20 23:18:00,
2013-01-20 18:23:00,46.1,28.9,30.04,SSW,211,2.0,8.0,51,0.00,,,0.00,Weather View 32 v70,2013-01-20 23:23:00,
2013-01-20 18:28:00,45.9,28.3,30.04,SW,228,2.0,8.0,50,0.00,,,0.00,Weather View 32 v70,2013-01-20 23:28:00,
2013-01-20 18:33:00,46.3,27.7,30.04,SSE,157,2.0,9.0,48,0.00,,,0.00,Weather View 32 v70,2013-01-20 23:33:00,
2013-01-20 18:38:00,46.5,27.3,30.04,SSE,167,1.0,9.0,47,0.00,,,0.00,Weather View 32 v70,2013-01-20 23:38:00,
2013-01-20 18:43:00,46.4,26.7,30.04,SE,146,0.0,9.0,46,0.00,,,0.00,Weather View 32 v70,2013-01-20 23:43:00,
2013-01-20 18:48:00,46.1,27.0,30.04,SW,235,1.0,9.0,47,0.00,,,0.00,Weather View 32 v70,2013-01-20 23:48:00,
2013-01-20 18:53:00,45.2,28.6,30.04,SW,219,0.0,9.0,52,0.00,,,0.00,Weather View 32 v70,2013-01-20 23:53:00,
2013-01-20 18:58:00,44.8,28.7,30.04,SW,214,2.0,9.0,53,0.00,,,0.00,Weather View 32 v70,2013-01-20 23:58:00,
2013-01-20 19:03:00,44.0,29.3,30.04,SW,214,2.0,9.0,56,0.00,,,0.00,Weather View 32 v70,2013-01-21 00:03:00,
2013-01-20 19:08:00,43.7,29.0,30.04,SSE,157,2.0,9.0,56,0.00,,,0.00,Weather View 32 v70,2013-01-21 00:08:00,
2013-01-20 19:13:00,43.4,29.6,30.05,SE,142,0.0,9.0,58,0.00,,,0.00,Weather View 32 v70,2013-01-21 00:13:00,
2013-01-20 19:19:00,43.0,29.2,30.05,South,190,0.0,9.0,58,0.00,,,0.00,Weather View 32 v70,2013-01-21 00:19:00,
2013-01-20 19:24:00,43.3,27.3,30.04,SW,225,4.0,9.0,53,0.00,,,0.00,Weather View 32 v70,2013-01-21 00:24:00,
2013-01-20 19:29:00,43.9,27.4,30.04,ENE,59,1.0,9.0,52,0.00,,,0.00,Weather View 32 v70,2013-01-21 00:29:00,
2013-01-20 19:34:00,43.6,28.5,30.05,South,182,1.0,6.0,55,0.00,,,0.00,Weather View 32 v70,2013-01-21 00:34:00,
2013-01-20 19:39:00,43.1,29.3,30.05,SW,214,0.0,6.0,58,0.00,,,0.00,Weather View 32 v70,2013-01-21 00:39:00,
2013-01-20 19:44:00,42.9,28.7,30.05,South,180,1.0,6.0,57,0.00,,,0.00,Weather View 32 v70,2013-01-21 00:44:00,
2013-01-20 19:49:00,42.5,28.7,30.05,SW,215,3.0,8.0,58,0.00,,,0.00,Weather View 32 v70,2013-01-21 00:49:00,
2013-01-20 19:54:00,43.0,26.6,30.05,WSW,250,0.0,8.0,52,0.00,,,0.00,Weather View 32 v70,2013-01-21 00:54:00,
2013-01-20 19:59:00,43.3,27.3,30.05,SW,226,1.0,8.0,53,0.00,,,0.00,Weather View 32 v70,2013-01-21 00:59:00,
2013-01-20 20:04:00,43.1,28.0,30.05,SSW,213,4.0,8.0,55,0.00,,,0.00,Weather View 32 v70,2013-01-21 01:04:00,
2013-01-20 20:09:00,43.1,28.4,30.05,SSW,212,3.0,8.0,56,0.00,,,0.00,Weather View 32 v70,2013-01-21 01:09:00,
2013-01-20 20:14:00,43.2,28.5,30.05,WSW,244,0.0,8.0,56,0.00,,,0.00,Weather View 32 v70,2013-01-21 01:14:00,
2013-01-20 20:19:00,42.4,29.5,30.05,SW,214,0.0,8.0,60,0.00,,,0.00,Weather View 32 v70,2013-01-21 01:19:00,
2013-01-20 20:24:00,42.0,28.7,30.05,SSW,204,0.0,8.0,59,0.00,,,0.00,Weather View 32 v70,2013-01-21 01:24:00,
2013-01-20 20:29:00,41.8,28.9,30.05,SSE,161,2.0,8.0,60,0.00,,,0.00,Weather View 32 v70,2013-01-21 01:29:00,
2013-01-20 20:34:00,42.2,28.5,30.05,West,259,2.0,8.0,58,0.00,,,0.00,Weather View 32 v70,2013-01-21 01:34:00,
2013-01-20 20:39:00,42.7,28.5,30.05,South,175,2.0,8.0,57,0.00,,,0.00,Weather View 32 v70,2013-01-21 01:39:00,
2013-01-20 20:44:00,42.9,28.7,30.05,NNE,19,0.0,8.0,57,0.00,,,0.00,Weather View 32 v70,2013-01-21 01:44:00,
2013-01-20 20:49:00,43.0,28.4,30.05,SW,218,0.0,7.0,56,0.00,,,0.00,Weather View 32 v70,2013-01-21 01:49:00,
2013-01-20 20:54:00,43.1,28.0,30.05,WNW,298,0.0,6.0,55,0.00,,,0.00,Weather View 32 v70,2013-01-21 01:54:00,
2013-01-20 20:59:00,42.6,28.8,30.05,SW,224,0.0,6.0,58,0.00,,,0.00,Weather View 32 v70,2013-01-21 01:59:00,
2013-01-20 21:04:00,41.9,29.0,30.05,NW,324,0.0,6.0,60,0.00,,,0.00,Weather View 32 v70,2013-01-21 02:04:00,
2013-01-20 21:09:00,41.3,28.8,30.05,WSW,243,0.0,6.0,61,0.00,,,0.00,Weather View 32 v70,2013-01-21 02:09:00,
2013-01-20 21:14:00,41.3,28.0,30.05,NW,312,0.0,6.0,59,0.00,,,0.00,Weather View 32 v70,2013-01-21 02:14:00,
2013-01-20 21:19:00,41.5,29.0,30.05,SSW,213,0.0,6.0,61,0.00,,,0.00,Weather View 32 v70,2013-01-21 02:19:00,
2013-01-20 21:24:00,41.3,28.4,30.05,WSW,240,0.0,6.0,60,0.00,,,0.00,Weather View 32 v70,2013-01-21 02:24:00,
2013-01-20 21:29:00,41.0,30.5,30.05,SSW,203,0.0,6.0,66,0.00,,,0.00,Weather View 32 v70,2013-01-21 02:29:00,
2013-01-20 21:34:00,40.2,29.0,30.05,SW,221,1.0,6.0,64,0.00,,,0.00,Weather View 32 v70,2013-01-21 02:34:00,
2013-01-20 21:39:00,39.8,28.6,30.05,SW,222,0.0,5.0,64,0.00,,,0.00,Weather View 32 v70,2013-01-21 02:39:00,
2013-01-20 21:44:00,39.3,30.0,30.05,SE,137,0.0,3.0,69,0.00,,,0.00,Weather View 32 v70,2013-01-21 02:44:00,
2013-01-20 21:49:00,38.8,29.1,30.05,WSW,239,0.0,3.0,68,0.00,,,0.00,Weather View 32 v70,2013-01-21 02:49:00,
2013-01-20 21:54:00,38.4,30.2,30.05,SSW,209,1.0,3.0,72,0.00,,,0.00,Weather View 32 v70,2013-01-21 02:54:00,
2013-01-20 21:59:00,37.8,30.6,30.05,SSW,204,0.0,3.0,75,0.00,,,0.00,Weather View 32 v70,2013-01-21 02:59:00,
2013-01-20 22:04:00,37.3,30.7,30.05,SSW,205,0.0,3.0,77,0.00,,,0.00,Weather View 32 v70,2013-01-21 03:04:00,
2013-01-20 22:09:00,36.9,30.7,30.05,SSW,200,0.0,3.0,78,0.00,,,0.00,Weather View 32 v70,2013-01-21 03:09:00,
2013-01-20 22:14:00,36.6,30.7,30.05,SSW,209,2.0,3.0,79,0.00,,,0.00,Weather View 32 v70,2013-01-21 03:14:00,
2013-01-20 22:19:00,36.4,30.8,30.05,SSW,196,0.0,3.0,80,0.00,,,0.00,Weather View 32 v70,2013-01-21 03:19:00,
2013-01-20 22:24:00,36.1,31.1,30.05,SSW,205,1.0,3.0,82,0.00,,,0.00,Weather View 32 v70,2013-01-21 03:24:00,
2013-01-20 22:29:00,35.8,31.1,30.05,SSW,201,1.0,3.0,83,0.00,,,0.00,Weather View 32 v70,2013-01-21 03:29:00,
2013-01-20 22:34:00,35.6,31.2,30.04,SSW,201,0.0,3.0,84,0.00,,,0.00,Weather View 32 v70,2013-01-21 03:34:00,
2013-01-20 22:39:00,35.5,31.4,30.04,SSW,209,2.0,3.0,85,0.00,,,0.00,Weather View 32 v70,2013-01-21 03:39:00,
2013-01-20 22:44:00,35.3,31.2,30.04,SW,217,2.0,3.0,85,0.00,,,0.00,Weather View 32 v70,2013-01-21 03:44:00,
2013-01-20 22:49:00,35.3,31.5,30.04,SW,216,0.0,3.0,86,0.00,,,0.00,Weather View 32 v70,2013-01-21 03:49:00,
2013-01-20 22:54:00,35.3,30.9,30.04,SW,217,0.0,3.0,84,0.00,,,0.00,Weather View 32 v70,2013-01-21 03:54:00,
2013-01-20 22:59:00,35.2,31.1,30.04,SSW,213,0.0,3.0,85,0.00,,,0.00,Weather View 32 v70,2013-01-21 03:59:00,
2013-01-20 23:04:00,34.9,30.6,30.04,SSW,204,0.0,3.0,84,0.00,,,0.00,Weather View 32 v70,2013-01-21 04:04:00,
2013-01-20 23:09:00,34.6,30.6,30.03,SW,215,2.0,3.0,85,0.00,,,0.00,Weather View 32 v70,2013-01-21 04:09:00,
2013-01-20 23:14:00,34.8,31.0,30.04,SSW,204,0.0,3.0,86,0.00,,,0.00,Weather View 32 v70,2013-01-21 04:14:00,
2013-01-20 23:19:00,34.9,31.1,30.04,SE,146,0.0,3.0,86,0.00,,,0.00,Weather View 32 v70,2013-01-21 04:19:00,
2013-01-20 23:24:00,34.9,31.4,30.03,SE,146,0.0,3.0,87,0.00,,,0.00,Weather View 32 v70,2013-01-21 04:24:00,
2013-01-20 23:29:00,34.8,31.0,30.03,SW,224,1.0,3.0,86,0.00,,,0.00,Weather View 32 v70,2013-01-21 04:29:00,
2013-01-20 23:34:00,34.8,31.3,30.03,SW,215,0.0,3.0,87,0.00,,,0.00,Weather View 32 v70,2013-01-21 04:34:00,
2013-01-20 23:39:00,34.7,31.5,30.03,SW,214,0.0,3.0,88,0.00,,,0.00,Weather View 32 v70,2013-01-21 04:39:00,
2013-01-20 23:45:00,34.5,31.0,30.03,SW,221,1.0,3.0,87,0.00,,,0.00,Weather View 32 v70,2013-01-21 04:45:00,
2013-01-20 23:50:00,34.7,31.8,30.03,SW,221,0.0,3.0,89,0.00,,,0.00,Weather View 32 v70,2013-01-21 04:50:00,
2013-01-20 23:55:00,34.6,31.7,30.03,SW,220,0.0,3.0,89,0.00,,,0.00,Weather View 32 v70,2013-01-21 04:55:00,